Location: *
(45.9500°N, 9.0833°E)
Time: 20:20:36
(UTC+00:00)

Tiros 1 despin weight - Pass Details

Date: 28 June 2021
Orbit: 593 x 642 km, 48.2° (Epoch: 05 August)

Event Time Altitude Azimuth Distance (km) Brightness Sun altitude
Rises 02:45:45 0° 244° (WSW) 2,848 - -7.4°
Exits shadow 02:47:37 - 243° (WSW) 2,107 ? -7.2°
Reaches altitude 10° 02:48:03 10° 242° (WSW) 1,939 ? -7.1°
Maximum altitude 02:52:29 75° 158° (SSE) 622 ? -6.6°
Drops below altitude 10° 02:56:53 10° 73° (ENE) 1,927 ? -6.0°
Sets 02:59:10 0° 72° (ENE) 2,829 ? -5.7°
